Location: Unspecified
(0.0000°N, 0.0000°E)
Time: 11:25:37
(UTC+00:00)

Vanguard 1 Rocket - Pass Details

Date: 20 November 2019
Orbit: 650 x 4226 km, 34.3° (Epoch: 07 December)

Event Time Altitude Azimuth Distance (km) Brightness Sun altitude
Rises 12:43:01 0° 282° (WNW) 5,685 11.6 65.8°
Reaches altitude 10° 12:46:24 10° 275° (W) 5,086 11.5 65.3°
Maximum altitude 13:01:49 44° 208° (SSW) 4,361 12.5 62.9°
Drops below altitude 10° 13:25:38 10° 142° (SE) 7,434 12.2 58.6°
Sets 13:32:14 0° 135° (SE) 8,392 12.3 57.3°
